Погода в Думагете

Филиппины     9°18′15″N   123°18′24″E
темп.,
°C
ветер,
м/с
пор.,
м/с
влажн.,
%
обл.,
%
осадки,
мм/ч
давл.,
гПа
погр.,
м
6 марта, сб
сб623:00+23св59904 0.3 1013527
02:00+22св588822 0.4 1011386
05:00+22ссв5989100 0.0 1012443
08:00+24св61081100 0.0 1014961
11:00+27св71069100 0.1 10141143
14:00+28св6766100 0.1 10111180
17:00+25св677842 0.1 1011711
20:00+23ссв477831 0.1 1012319
7 марта, вс
вс723:00+23св6108367 0.0 1013600
02:00+23св598868 0.1 1011524
05:00+22св59852 0.0 1011499
08:00+24св698011 0.1 1013938
11:00+27св797050 0.2 10131148
14:00+27св677069 0.6 1010992
17:00+25ссв4681100 0.6 1009509
20:00+23ссв478692 0.7 1011312
8 марта, пн
пн823:00+23св598584 0.3 1012492
02:00+23св599092 0.4 1011481
05:00+23ссв589092 0.2 1011402
08:00+25ссв578489 0.5 1013765
11:00+28св466565 0.2 10121120
14:00+28ссв456782 0.3 1010956
17:00+26ссв467773 1.2 1009509
20:00+23с358785 1.4 1011246
9 марта, вт
вт923:00+23св4788100 0.9 1012360
02:00+23св598897 1.1 1011566
05:00+23ссв489039 0.1 1010364
08:00+25св698230 0.9 1013870
11:00+26св697633 1.3 1012998
14:00+25ссв478049 1.9 1010683
17:00+25св588255 0.4 1009604
20:00+24ссв598744 0.5 1012454
10 марта, ср
ср1023:00+23ссв61087100 0.3 1012614
02:00+23св61090100 0.5 1011649
05:00+23св5990100 0.4 1011545
08:00+24св698678 1.7 1012896
11:00+26св687876 1.0 1012936
14:00+26св677749 2.5 1009851
17:00+25ссв58839 1.1 1009690
20:00+24ссв598823 1.9 1012500